Location: Ferri�re
(48.1351°N, 1.1874°W)
Time: 00:59:49
(UTC+00:00)

Daily predictions for brighter satellites

Satellite Brightness Start Highest point End
(mag) Time Altitude Azimuth Time Altitude Azimuth Time Altitude Azimuth
USA 215 4.4 03:21:28 10° E 03:25:43 38° ENE 03:25:43 38° ENE
Cosmos 1943 Rocket 3.1 04:06:38 45° ESE 04:06:38 45° ESE 04:11:47 10° NE
CZ-2C R/B 4.4 04:05:12 10° ESE 04:09:51 29° ENE 04:13:24 15° NNE
CENTAUR R/B 2.8 04:16:08 62° SE 04:16:23 62° ESE 04:23:18 10° NE
Cosmos 2297 4.1 04:21:06 58° ESE 04:21:16 59° ESE 04:26:53 10° NE
NOSS 3-2 (A) 3.4 04:27:50 75° NE 04:27:50 75° NE 04:33:49 10° NE
Cosmos 2278 Rocket 4.0 04:33:50 20° N 04:33:50 20° N 04:35:43 10° NNE
NOSS 3-2 (C) 3.7 04:33:36 47° S 04:34:55 59° ESE 04:41:13 10° NE
Envisat 4.5 04:30:54 10° NNE 04:35:35 35° E 04:40:13 10° SSE
Meteor 2-3 Rocket 3.9 04:36:46 10° S 04:42:24 73° E 04:48:08 10° NNE
Cosmos 968 Rocket 4.0 04:42:38 25° S 04:45:30 58° ESE 04:50:32 10° NNE
Cosmos 921 Rocket 3.4 04:50:35 62° E 04:50:35 62° E 04:54:44 10° SSE
DNEPR-1 R/B 4.4 04:53:14 45° NNE 04:54:07 51° NE 04:59:24 10° ESE
Meteor 1-26 Rocket 4.2 04:53:50 34° NNW 04:56:35 86° W 05:02:22 10° S
Cosmos 1812 3.5 04:56:57 49° ENE 04:56:57 49° ENE 05:00:41 10° SSE
USA 238 DEB 3.5 05:00:10 39° SW 05:02:54 87° NW 05:09:51 10° NE
USA 238 3.5 05:00:14 38° SW 05:03:00 88° NW 05:09:57 10° NE
Cosmos 1151 Rocket 3.6 05:01:35 27° N 05:03:49 56° ENE 05:08:06 10° SSE
Cosmos 2344 3.5 05:03:34 45° W 05:05:48 62° NW 05:13:47 10° NE
Cosmos 1816 Rocket 4.5 05:07:03 27° SW 05:10:23 56° WNW 05:16:35 10° N
USA 215 3.2 05:03:51 10° SE 05:10:24 88° SSW 05:13:03 40° WNW
Kosmos-917 4.0 05:12:30 58° NNE 05:12:30 58° NNE 05:16:33 10° NE
Cosmos 1782 4.3 05:15:55 24° S 05:15:55 24° S 05:17:36 10° S
Meteor 1-31 Rocket 3.4 05:10:17 10° NNE 05:14:07 55° E 05:17:57 10° S
Cosmos 2279 Rocket 4.2 05:08:12 10° N 05:14:24 69° E 05:20:34 10° SSE
Cosmos 1328 Rocket 4.2 05:12:41 13° N 05:16:29 54° ENE 05:20:45 10° SSE
SJ-12 3.8 05:15:25 10° NNE 05:19:35 88° ESE 05:23:43 10° SSW
FALCON 9 DEB 3.5 05:21:07 58° NE 05:21:07 58° NE 05:23:56 10° ENE
Cosmos 2369 Rocket 2.3 05:15:18 10° SSW 05:20:52 76° ESE 05:26:29 10° NNE
Cosmos 1862 3.9 05:19:05 10° S 05:22:56 57° E 05:26:50 10° NNE
COSMO-SKYMED 1 2.4 05:20:06 10° S 05:24:25 74° WSW 05:25:48 43° NNW
H-2A R/B 2.5 05:23:51 10° N 05:27:33 74° WNW 05:31:17 10° SSW
Cosmos 1634 Rocket 3.9 05:23:16 10° NNW 05:29:28 63° W 05:35:36 10° S
Cosmos 836 Rocket 4.4 05:27:51 28° NNW 05:30:40 77° WSW 05:35:52 10° SSE
Tsikada Rocket 4.2 05:32:19 10° SW 05:38:13 44° WNW 05:44:14 10° N
CZ-4B R/B 4.1 05:38:17 10° ESE 05:40:35 18° ENE 05:42:52 10° NNE
MOS 1-B Rocket 4.2 05:34:47 10° S 05:40:48 45° W 05:44:43 19° NW
YAOGAN 6 4.5 05:39:05 10° N 05:40:14 18° N 05:40:14 18° N
Cosmos 1656 Rocket 3.6 05:39:07 10° SSW 05:44:32 84° ESE 05:50:01 10° NNE
SAR-Lupe-3 4.5 05:41:10 10° N 05:44:43 60° WNW 05:48:15 10° SSW
Gblst 52 Del rocket 4.5 05:41:33 29° W 05:44:49 72° NNW 05:51:48 10° ENE
Cosmos 1503 Rocket 4.4 05:39:52 10° S 05:45:05 68° ESE 05:50:24 10° NNE
CZ-4C R/B 2.5 05:42:15 10° S 05:45:23 71° WSW 05:46:01 51° NW
DMSP B5D2-2 4.3 05:40:42 10° SSE 05:45:53 73° ENE 05:51:06 10° N
Cosmos 2227 Rocket 4.5 05:45:57 10° N 05:49:28 16° NE 05:52:59 10° ENE
CZ-2C R/B 2.9 05:44:38 10° S 05:49:56 48° W 05:54:54 11° NNW
Cosmos 1943 Rocket 2.7 05:48:15 27° W 05:50:18 36° NW 05:55:30 10° NNE
Cosmos 1486 Rocket 3.9 05:47:28 10° SSW 05:52:44 66° WNW 05:58:01 10° NNE
SL-8 R/B 3.8 05:54:21 28° W 05:56:46 66° SSW 06:01:30 10° ESE
Cosmos 1515 Rocket 3.7 05:52:26 10° N 05:56:51 77° E 06:01:11 10° SSE
FALCON 9 DEB 3.4 05:56:51 35° NNW 05:57:00 35° NNW 05:59:43 10° ENE
Meteor 2-15 4.4 05:52:01 10° N 05:58:07 86° W 06:04:10 10° S
Cosmos 2180 Rocket 4.4 05:53:34 10° NNW 05:59:45 74° W 06:05:50 10° S
Meteor 1-27 Rocket 4.0 05:54:10 10° N 05:59:47 70° ENE 06:05:30 10° SSE
Iridium 2 4.3 05:58:42 10° SW 06:02:10 34° WNW 06:05:39 10° NNW
COSMOS 2487 4.4 06:00:46 10° N 06:03:37 25° ENE 06:06:26 10° ESE
FALCON 9 DEB 3.6 06:03:16 29° NNW 06:03:39 31° N 06:06:16 10° ENE
Cosmos 773 Rocket 4.0 05:58:50 10° NNW 06:04:07 84° ENE 06:09:18 10° SSE
FALCON 9 DEB 3.7 06:05:15 28° NNW 06:05:44 30° N 06:08:19 10° ENE
SJ 16-02 2.8 06:02:24 10° S 06:06:28 40° ESE 06:10:35 10° NE
CENTAUR R/B 3.1 06:03:21 19° W 06:07:28 41° NNW 06:14:30 10° NE
NOAA 11 4.1 06:02:59 10° NNE 06:08:29 82° WNW 06:13:58 10° SSW
Alouette 2 Rocket 4.1 06:06:18 10° N 06:10:13 49° ENE 06:13:40 10° SSE
Meteor 2-19 Rocket 4.4 06:07:00 10° S 06:13:03 88° ESE 06:19:09 10° N
NOAA 12 4.3 06:08:22 10° NNE 06:13:40 75° ESE 06:18:54 10° S
Envisat 3.5 06:10:00 10° N 06:14:34 35° WNW 06:19:08 10° SW
Cosmos 1340 Rocket 3.7 06:11:00 10° S 06:14:49 51° E 06:18:43 10° NNE
Cosmos 2278 Rocket 4.1 06:15:42 11° NW 06:16:23 11° NNW 06:17:44 10° NNW
SL-27 R/B 2.4 06:14:04 12° NNW 06:17:24 86° WSW 06:20:57 10° SSE
Cosmos 1500 Rocket 4.1 06:13:51 10° S 06:18:15 65° E 06:22:43 10° NNE
NOSS 3-2 (A) 4.3 06:15:14 18° WNW 06:18:57 31° NNW 06:25:02 10° NE
Cosmos 1939 Rocket 3.1 06:16:14 10° NNE 06:20:12 73° ESE 06:24:05 10° S
FALCON 9 DEB 3.7 06:21:30 22° NW 06:22:44 31° N 06:25:23 10° ENE
Cosmos 2098 Rocket 3.9 06:19:35 10° SW 06:23:05 28° WNW 06:27:23 10° N
NOSS 3-2 (C) 4.0 06:21:05 12° W 06:26:09 39° NNW 06:32:29 10° NE
Cosmos 968 Rocket 4.5 06:23:30 10° WSW 06:27:40 24° NW 06:31:50 10° N
Okean O Rocket 4.4 06:27:02 10° NE 06:30:28 21° E 06:33:51 10° SE
Okean 3 Rocket 4.3 06:27:35 10° SW 06:31:39 32° WNW 06:35:45 10° N
Sich 1 4.5 06:27:46 10° SSE 06:31:48 41° E 06:35:49 10° NNE
Cosmos 1812 4.4 06:32:03 14° W 06:32:15 14° W 06:34:19 10° WSW
H-2A R/B 2.1 06:28:22 10° S 06:32:34 59° WSW 06:36:54 10° NNW
ATLAS 3B R/B 3.6 06:28:08 10° SSW 06:34:26 53° ESE 06:41:01 10° NE
Cosmos 1174 4.4 06:35:00 10° SSW 06:37:50 44° ESE 06:40:50 10° NE
ATLAS 5 CENTAUR R/B 2.3 06:34:33 10° SSW 06:38:16 51° SE 06:42:27 10° NE
ADEOS 3.9 06:33:48 10° N 06:38:42 42° WNW 06:43:35 10° SW
Cosmos 158 Rocket 4.1 06:34:22 10° NNW 06:39:29 78° ENE 06:44:42 10° SSE
Cosmos 1354 Rocket 4.2 06:40:12 10° SW 06:45:19 49° WNW 06:50:30 10° NNE
Cosmos 1515 3.6 06:41:32 10° NNW 06:45:21 78° W 06:49:08 10° S
Meteor PRIRODA 4.2 06:42:49 10° N 06:46:07 33° WNW 06:49:24 10° SW
Okean 1 3.9 06:42:21 10° N 06:46:18 60° ENE 06:50:12 10° SSE
CZ-2C R/B 3.1 06:42:28 10° N 06:47:06 47° WNW 06:51:54 10° SW
Meteor 1-31 Rocket 4.4 06:45:45 10° NNW 06:48:05 16° WNW 06:50:26 10° W
NOSS 2 (A) 4.1 06:50:11 10° NW 06:53:00 74° SW 06:55:28 10° SE
USA 215 4.3 06:48:23 10° S 06:53:58 30° SW 06:59:34 10° WNW
USA 238 DEB 4.5 06:48:53 10° W 06:54:46 32° NNW 07:01:00 10° NE
USA 238 4.5 06:48:58 10° W 06:54:52 32° NNW 07:01:06 10° NE
FALCON 9 DEB 3.9 06:54:25 10° WNW 06:57:35 36° N 07:00:46 10° ENE
Cosmos 2297 Rocket 3.0 06:53:48 10° NNW 06:59:21 51° NE 07:04:50 10° SE
SMAP 3.1 06:55:46 10° N 07:00:22 59° WNW 07:04:55 10° SSW
FengYun 1-2 T 4.3 06:58:12 10° N 07:03:34 56° WNW 07:08:54 10° SW
Cosmos 2369 Rocket 3.2 07:01:04 10° W 07:05:31 24° NW 07:10:00 10° N
